FW6082 Weather Reports


time (UTC)temp
C
wind
direction
speed
KPH
gust
KPH
rain 1hr
cm
rain 24hr
cm
rain mn
cm
humidity
%
barometer
mb
20260906224538 18 132 6.4 17.7 0.00 0.00 0.00 27 1009.1
20260906223037 18 281 3.2 12.9 0.00 0.00 0.00 25 1008.8
20260906221537 19 249 3.2 17.7 0.00 0.00 0.00 24 1008.9
20260906220039 20 258 4.8 16.1 0.00 0.00 0.00 23 1008.6
20260906214537 20 232 3.2 14.5 0.00 0.00 0.00 22 1008.5
20260906213034 20 242 6.4 14.5 0.00 0.00 0.00 23 1008.5
20260906211533 21 249 6.4 17.7 0.00 0.00 0.00 21 1008.3
20260906210037 22 284 4.8 14.5 0.00 0.00 0.00 21 1008.0
20260906204533 22 259 6.4 16.1 0.00 0.00 0.00 18 1007.8
20260906203036 23 228 6.4 16.1 0.00 0.00 0.00 19 1007.8
20260906201540 23 298 6.4 19.3 0.00 0.00 0.00 18 1007.8
20260906200030 23 213 6.4 14.5 0.00 0.00 0.00 19 1007.7
20260906194529 23 275 6.4 19.3 0.00 0.00 0.00 18 1007.8
20260906193028 23 219 6.4 16.1 0.00 0.00 0.00 19 1007.8
20260906191527 23 280 8.0 16.1 0.00 0.00 0.00 18 1007.9
20260906190026 24 253 6.4 17.7 0.00 0.00 0.00 19 1008.0
20260906184525 24 233 9.7 17.7 0.00 0.00 0.00 18 1007.9
20260906183033 24 234 8.0 20.9 0.00 0.00 0.00 18 1008.0
20260906181535 24 258 6.4 19.3 0.00 0.00 0.00 18 1008.0
20260906180028 24 215 9.7 19.3 0.00 0.00 0.00 17 1008.0
20260906174521 25 263 12.9 20.9 0.00 0.00 0.00 17 1008.1
20260906173018 25 223 6.4 16.1 0.00 0.00 0.00 19 1008.1
20260906171516 24 204 8.0 17.7 0.00 0.00 0.00 18 1008.3
20260906170015 24 251 9.7 22.5 0.00 0.00 0.00 17 1008.5
20260906164512 24 227 6.4 16.1 0.00 0.00 0.00 17 1008.6
20260906163009 23 253 8.0 19.3 0.00 0.00 0.00 17 1008.7
20260906161511 23 269 6.4 17.7 0.00 0.00 0.00 16 1009.0
20260906160004 23 289 8.0 14.5 0.00 0.00 0.00 16 1008.9
20260906154502 23 220 4.8 12.9 0.00 0.00 0.00 15 1009.1
20260906153112 24 192 1.6 9.7 0.00 0.00 0.00 15 1009.2
20260906151555 24 226 1.6 8.0 0.00 0.00 0.00 15 1009.6
20260906150054 23 208 0.0 4.8 0.00 0.00 0.00 16 1009.7
20260906144550 23 164 0.0 4.8 0.00 0.00 0.00 15 1009.8
20260906143045 23 197 0.0 3.2 0.00 0.00 0.00 16 1010.0
20260906141555 22 82 0.0 0.0 0.00 0.00 0.00 17 1010.1
20260906140038 21 82 0.0 1.6 0.00 0.00 0.00 17 1010.1
20260906134535 20 82 0.0 1.6 0.00 0.00 0.00 21 1010.3
20260906133035 18 82 0.0 1.6 0.00 0.00 0.00 22 1010.5
20260906131525 16 82 0.0 0.0 0.00 0.00 0.00 27 1010.6
20260906130024 15 82 0.0 1.6 0.00 0.00 0.00 29 1010.6
20260906124517 12 82 0.0 3.2 0.00 0.00 0.00 31 1010.6
20260906123020 8 28 0.0 0.0 0.00 0.00 0.00 43 1010.6
20260906121527 8 28 0.0 0.0 0.00 0.00 0.00 43 1010.5
20260906120012 9 28 0.0 1.6 0.00 0.00 0.00 41 1010.4
20260906114520 8 51 0.0 0.0 0.00 0.00 0.00 40 1010.2
20260906113011 8 33 0.0 0.0 0.00 0.00 0.00 40 1010.1
20260906111510 9 33 0.0 0.0 0.00 0.00 0.00 39 1010.0
20260906110008 9 33 0.0 0.0 0.00 0.00 0.00 39 1009.8
20260906104508 9 33 0.0 1.6 0.00 0.00 0.00 37 1009.7
20260906103012 8 42 0.0 0.0 0.00 0.00 0.00 40 1009.7
20260906101504 8 42 0.0 0.0 0.00 0.00 0.00 41 1009.7
20260906100004 8 42 0.0 0.0 0.00 0.00 0.00 46 1009.6
20260906094503 9 42 0.0 0.0 0.00 0.00 0.00 41 1009.6
20260906093001 10 42 0.0 0.0 0.00 0.00 0.00 41 1009.6
20260906091601 8 18 0.0 3.2 0.00 0.00 0.00 44 1009.4
20260906090100 8 32 0.0 0.0 0.00 0.00 0.00 44 1009.5
20260906084600 8 32 0.0 0.0 0.00 0.00 0.00 46 1009.5
20260906083103 8 32 0.0 0.0 0.00 0.00 0.00 45 1009.4
20260906081655 9 32 0.0 0.0 0.00 0.00 0.00 44 1009.4
20260906080054 9 32 0.0 0.0 0.00 0.00 0.00 42 1009.5
20260906074551 10 32 0.0 0.0 0.00 0.00 0.00 43 1009.6
20260906073050 10 32 0.0 0.0 0.00 0.00 0.00 43 1009.6
20260906071549 11 32 0.0 0.0 0.00 0.00 0.00 40 1009.6
20260906070047 11 32 0.0 1.6 0.00 0.00 0.00 35 1009.7
20260906064545 10 32 0.0 0.0 0.00 0.00 0.00 44 1009.8
20260906063144 10 32 0.0 0.0 0.00 0.00 0.00 45 1010.0
20260906061546 10 32 0.0 0.0 0.00 0.00 0.00 44 1010.1
20260906060042 11 32 0.0 0.0 0.00 0.00 0.00 39 1010.4
20260906054542 11 32 0.0 0.0 0.00 0.00 0.00 36 1010.3
20260906053036 11 32 0.0 0.0 0.00 0.00 0.00 36 1010.4
20260906051536 11 32 0.0 0.0 0.00 0.00 0.00 38 1010.6
20260906050033 11 32 0.0 0.0 0.00 0.00 0.00 36 1010.6
20260906044630 11 32 0.0 0.0 0.00 0.00 0.00 37 1010.6
20260906043033 12 32 0.0 1.6 0.00 0.00 0.00 36 1010.7
20260906041528 12 342 0.0 0.0 0.00 0.00 0.00 38 1010.9
20260906040022 11 342 0.0 0.0 0.00 0.00 0.00 39 1011.0
20260906034533 11 342 0.0 0.0 0.00 0.00 0.00 39 1011.1
20260906033020 12 342 0.0 0.0 0.00 0.00 0.00 38 1011.2
20260906031527 12 342 0.0 0.0 0.00 0.00 0.00 36 1011.2
20260906030119 13 339 0.0 3.2 0.00 0.00 0.00 35 1011.3
20260906024518 12 330 0.0 0.0 0.00 0.00 0.00 37 1011.3
20260906023017 12 330 0.0 0.0 0.00 0.00 0.00 38 1011.3
20260906021517 11 330 0.0 0.0 0.00 0.00 0.00 41 1011.2
20260906020016 11 330 0.0 0.0 0.00 0.00 0.00 40 1011.2
20260906014516 12 330 0.0 0.0 0.00 0.00 0.00 40 1011.2
20260906013015 13 330 0.0 0.0 0.00 0.00 0.00 37 1011.3
20260906011614 14 330 0.0 0.0 0.00 0.00 0.00 34 1011.3
20260906010014 15 330 0.0 0.0 0.00 0.00 0.00 32 1011.3
20260906004514 16 330 0.0 1.6 0.00 0.00 0.00 30 1011.1
20260906003013 16 330 0.0 3.2 0.00 0.00 0.00 30 1011.0
20260906001519 17 293 0.0 0.0 0.00 0.00 0.00 28 1010.8
20260906000012 17 303 0.0 1.6 0.00 0.00 0.00 27 1010.7
20260905234511 18 303 0.0 3.2 0.00 0.00 0.00 26 1010.6
20260905233110 18 326 1.6 4.8 0.00 0.00 0.00 23 1010.3
20260905231515 19 247 0.0 8.0 0.00 0.00 0.00 22 1010.3
20260905230009 20 212 0.0 12.9 0.00 0.00 0.00 19 1010.2